This is the latest recevied weather packets stored in our database for station/object DC1NF-7. If no packets are shown the sender has not sent any weather packets the latest 10 day(s).
| Time | Temp. | Humidity | Pressure | Rain* | Wind** | Luminosity | Snow |
|---|---|---|---|---|---|---|---|
| 1777694145 | 3.89° C | 87% | 1024.3 hPa | 0 mm | - | 3 W/m² | - |
| 1777693539 | 4.44° C | 85% | 1024.4 hPa | 0 mm | - | 1 W/m² | - |
| 1777692938 | 5° C | 86% | 1024.4 hPa | 0 mm | - | 0 W/m² | - |
| 1777692334 | 4.44° C | 86% | 1024.5 hPa | 0 mm | - | 0 W/m² | - |
| 1777691730 | 4.44° C | 85% | 1024.4 hPa | 0 mm | - | 0 W/m² | - |
| 1777691126 | 4.44° C | 85% | 1024.7 hPa | 0 mm | - | 0 W/m² | - |
| 1777690523 | 5° C | 84% | 1024.6 hPa | 0 mm | - | 0 W/m² | - |
| 1777689920 | 5° C | 84% | 1024.6 hPa | 0 mm | - | 0 W/m² | - |
| 1777689377 | 5.56° C | 83% | 1024.7 hPa | 0 mm | - | 0 W/m² | - |
| 1777688769 | 5.56° C | 84% | 1024.8 hPa | 0 mm | - | 0 W/m² | - |
| 1777688165 | 5.56° C | 83% | 1024.8 hPa | 0 mm | - | 0 W/m² | - |
| 1777687564 | 6.11° C | 81% | 1024.8 hPa | 0 mm | - | 0 W/m² | - |
| 1777686960 | 6.11° C | 81% | 1024.8 hPa | 0 mm | - | 0 W/m² | - |
| 1777686355 | 6.67° C | 81% | 1024.8 hPa | 0 mm | - | 0 W/m² | - |
| 1777685749 | 6.67° C | 80% | 1024.9 hPa | 0 mm | - | 0 W/m² | - |
| 1777685145 | 6.67° C | 79% | 1024.7 hPa | 0 mm | - | 0 W/m² | - |
| 1777684542 | 7.22° C | 79% | 1024.8 hPa | 0 mm | - | 0 W/m² | - |
| 1777683938 | 7.22° C | 79% | 1024.9 hPa | 0 mm | - | 0 W/m² | - |
| 1777683334 | 7.22° C | 79% | 1024.8 hPa | 0 mm | - | 0 W/m² | - |
| 1777682733 | 7.22° C | 79% | 1024.8 hPa | 0 mm | - | 0 W/m² | - |
| 1777682126 | 7.22° C | 79% | 1024.8 hPa | 0 mm | - | 0 W/m² | - |
| 1777681524 | 7.22° C | 78% | 1024.9 hPa | 0 mm | - | 0 W/m² | - |
| 1777680920 | 7.22° C | 78% | 1024.9 hPa | 0 mm | - | 0 W/m² | - |
| 1777680317 | 7.78° C | 77% | 1024.8 hPa | 0 mm | - | 0 W/m² | - |
| 1777679774 | 8.33° C | 75% | 1024.9 hPa | 0 mm | - | 0 W/m² | - |
* Rain latest hour (hover to see other rain measurements)
** Current wind speed in m/s (hover to see current wind gust speed)